Temperature
18 18 18 17 17 17 17 17 17 17 17 17 17 17 17 17 17 17 17 17 17 17 17 17 17 17 16 16 16 16 16 16 16 16 16 16 16 16 15 15 15 15 15
18 18 18 17 17 17 17 17 17 17 17 17 17 17 17 17 17 17 17 17 17 17 17 17 17 17 17 16 16 16 16 16 16 16 16 16 16 15 15 15 15 15 15
17 17 17 17 17 17 17 17 17 17 17 17 17 17 17 17 17 17 17 17 17 17 17 17 16 16 17 16 16 16 16 16 16 16 16 16 16 15 15 15 15 15 15
17 17 17 17 17 17 17 17 17 17 17 17 17 17 17 17 17 17 17 17 17 17 17 16 16 16 16 16 16 16 16 16 16 16 16 16 16 16 15 15 15 15 15
17 17 17 17 17 17 17 17 17 17 17 17 17 17 17 17 17 17 17 17 17 17 17 16 16 16 16 16 16 16 16 16 16 16 16 16 16 16 15 15 15 15 15
17 17 17 17 17 17 17 17 17 17 17 17 17 17 17 17 17 17 17 17 17 17 17 16 16 16 16 16 16 16 16 16 16 16 16 16 16 15 15 15 15 15 15
17 17 17 17 17 17 17 17 17 17 17 17 17 17 17 17 17 17 17 17 17 17 17 16 16 16 16 16 16 16 16 16 16 16 16 16 16 16 15 15 15 15 15
17 17 17 17 17 17 17 17 17 17 17 17 17 17 17 17 17 17 17 17 17 17 17 17 16 16 16 16 16 16 16 16 16 16 16 16 16 15 15 15 15 15 15
17 17 17 17 17 17 17 17 17 17 17 17 17 17 17 17 17 17 17 17 17 17 17 17 17 17 17 16 16 16 16 16 16 16 16 16 15 15 15 15 15 15 15
17 17 17 17 17 17 17 17 17 17 17 17 17 17 17 17 17 17 17 17 17 17 17 17 17 17 17 17 16 16 16 16 16 16 16 15 15 15 15 15 15 15 15
17 17 17 17 17 17 17 17 17 17 17 17 17 17 17 17 17 16 17 17 17 17 17 17 17 17 17 17 16 16 16 16 16 16 15 15 15 15 15 15 15 14 14
17 17 17 17 17 17 17 17 17 17 17 17 17 17 17 17 17 17 17 17 17 17 17 17 17 17 16 16 16 16 16 16 16 16 15 15 15 15 15 15 14 14 14
17 17 17 17 17 17 17 17 17 17 17 17 17 17 17 17 17 17 17 17 16 16 16 16 16 16 16 16 16 16 16 16 15 15 15 15 15 15 14 14 14 14 14
17 17 17 17 17 17 17 17 17 17 17 17 17 17 17 17 16 16 16 16 16 16 16 16 16 16 16 16 15 15 15 15 15 15 15 15 14 14 14 14 14 13 13
17 17 17 17 17 17 17 17 17 17 17 17 17 17 16 16 16 16 16 16 16 15 15 15 15 15 15 15 15 15 15 15 14 14 14 14 14 14 14 13 13 13 13
17 17 17 17 17 17 17 17 17 17 16 16 16 16 16 16 16 16 16 16 16 16 15 15 15 15 15 14 14 14 14 14 14 14 14 13 13 13 13 13 13 13 12
17 17 17 17 17 17 17 17 16 16 16 16 16 16 16 16 16 16 16 15 15 15 15 15 14 14 14 14 14 13 13 13 13 13 13 13 13 12 12 12 12 12 12
17 17 16 16 16 16 16 16 16 16 16 16 16 16 16 15 15 15 15 15 15 15 15 14 14 14 14 13 13 13 13 12 12 12 12 12 12 12 12 11 11 11 11
17 16 16 16 16 16 16 16 16 16 16 15 15 15 15 15 15 15 15 15 15 14 14 14 14 13 13 13 13 12 12 12 12 11 11 11 11 11 11 11 11 10 10
16 16 16 16 16 16 16 15 15 15 15 15 15 15 15 15 15 15 15 14 14 14 14 13 13 13 13 12 12 12 11 11 11 11 11 10 10 10 10 10 10 10 10
16 16 16 16 16 15 15 15 15 15 15 14 14 14 14 14 14 14 14 14 14 13 13 13 13 12 12 12 12 11 11 11 10 10 10 10 10 10 10 9 9 9 9
16 16 16 15 15 15 15 14 14 14 14 14 14 14 14 14 14 13 13 13 13 13 13 12 12 12 12 11 11 11 11 10 10 9 10 9 9 9 9 9 8 8 8
15 15 15 15 15 15 14 14 14 14 14 14 13 13 13 13 13 13 13 13 13 12 12 12 12 12 11 11 11 11 10 10 10 9 9 9 9 8 8 8 8 8 8
15 15 15 14 14 14 14 14 14 14 13 13 13 13 13 13 12 12 12 12 12 12 12 11 11 11 11 11 10 10 10 10 9 9 9 9 8 8 8 8 7 7 7
15 14 14 14 14 14 14 14 13 13 13 13 12 12 12 12 12 12 12 12 11 11 11 11 11 10 10 10 10 10 9 9 9 9 8 8 8 8 7 7 7 7 7
14 14 14 14 14 13 13 13 13 13 13 12 12 12 12 12 12 11 11 11 11 11 10 10 10 10 10 9 9 9 9 9 8 8 8 8 8 7 7 7 7 7 7
Wind_Speed
3 2 2 2 2 2 2 2 3 3 3 3 3 4 5 5 5 5 5 7 8 8 8 8 9 9 9 9 9 9 8 8 8 8 8 7 7 7 6 6 6 6 6
4 3 2 2 2 2 1 2 2 2 2 2 2 3 4 4 4 5 5 6 8 8 8 8 9 9 9 9 9 9 9 9 9 9 9 8 8 7 8 7 7 7 7
6 4 2 2 2 3 2 2 2 2 2 1 1 2 3 4 4 5 5 5 6 8 9 9 9 10 10 10 10 10 10 10 9 9 9 9 9 9 9 8 8 8 8
8 5 3 3 3 3 3 2 2 1 1 1 1 1 2 3 4 5 6 6 6 7 8 9 10 10 10 11 11 11 11 11 10 10 10 10 10 10 10 10 9 9 9
9 7 4 4 4 3 3 2 2 2 2 1 1 1 1 2 3 5 6 7 7 8 8 9 10 11 11 12 12 12 12 12 12 12 11 11 11 11 11 11 11 11 11
8 7 5 5 5 3 2 2 2 2 1 2 1 0 1 2 3 4 6 7 8 9 9 9 9 10 11 12 12 12 12 13 13 13 13 13 13 13 13 13 13 13 13
7 7 4 4 4 4 4 4 2 2 1 1 1 1 2 1 3 4 5 5 7 8 8 9 8 8 8 10 12 12 13 13 14 14 14 13 13 13 13 13 14 14 14
7 6 5 4 4 3 3 4 3 2 2 2 2 1 1 3 2 2 3 4 5 5 6 8 8 9 9 8 9 12 13 13 14 14 14 13 13 13 13 14 14 14 14
8 7 6 5 5 4 5 5 5 5 3 2 2 3 3 3 2 2 1 2 3 3 4 6 7 8 8 8 8 10 12 12 13 12 12 13 13 13 13 13 13 13 13
7 7 7 7 6 5 5 5 5 4 4 4 2 2 2 3 2 1 2 1 1 2 3 3 4 6 7 7 8 9 10 10 10 11 12 12 13 13 13 13 12 11 11
5 6 7 6 5 5 6 6 5 6 5 5 4 3 2 2 2 3 3 2 1 1 2 2 2 3 4 5 6 7 8 8 9 9 9 9 9 9 9 10 10 10 10
2 4 5 5 5 5 6 6 6 6 6 5 4 4 4 3 3 4 4 3 2 1 1 1 1 1 2 3 4 4 5 6 6 6 6 6 6 6 6 7 7 7 7
2 3 3 4 4 4 5 5 5 5 6 5 5 4 4 4 3 3 3 3 2 2 1 0 0 1 1 1 1 2 3 3 3 3 3 4 4 4 4 4 4 5 5
3 3 3 3 3 3 3 3 3 4 4 4 5 4 4 4 4 4 3 3 2 2 2 2 0 0 1 2 2 3 3 3 3 3 3 3 3 3 2 2 3 4 4
2 2 3 3 2 2 2 3 2 2 2 3 3 3 3 2 3 3 4 4 4 3 3 2 1 1 2 3 3 4 4 5 4 4 4 4 4 3 3 3 3 4 4
2 2 2 2 2 1 2 2 2 2 2 1 1 2 1 1 2 2 3 3 4 4 3 1 2 1 2 3 4 5 6 7 6 7 7 7 7 6 5 4 4 5 5
2 2 2 2 2 2 2 2 2 2 2 1 1 2 1 1 1 1 1 2 2 2 3 1 0 1 2 3 4 5 6 7 8 8 8 9 8 8 8 8 7 8 8
2 2 3 2 2 2 2 2 2 2 2 2 1 1 1 1 0 0 1 1 2 2 3 2 1 1 2 3 4 5 5 7 7 9 9 9 9 8 8 8 8 9 9
3 3 3 3 2 2 2 2 2 2 2 2 1 1 1 1 1 1 1 1 1 1 2 3 2 1 2 3 4 4 5 5 6 7 8 8 9 9 8 8 8 9 10
3 3 3 2 2 2 2 2 3 3 3 2 2 2 2 2 2 2 1 1 2 2 3 3 3 2 2 2 3 3 3 3 3 5 6 7 8 8 8 8 8 8 8
3 3 3 2 2 2 2 3 3 3 3 3 3 3 4 5 5 3 3 2 3 3 3 3 3 2 2 2 2 2 3 2 3 3 2 3 4 5 6 6 6 7 7
4 3 3 3 3 2 4 5 4 4 4 3 3 3 4 4 5 6 7 6 5 4 3 3 2 3 2 2 2 2 2 2 1 1 1 2 2 2 3 4 5 5 5
3 4 3 4 4 4 5 6 6 5 4 3 3 3 2 3 4 5 7 8 7 6 4 3 3 2 2 2 3 3 3 2 1 1 1 1 1 1 1 2 3 3 3
3 3 3 3 4 4 5 6 6 5 4 3 3 3 3 3 3 5 6 6 6 5 4 3 3 2 2 3 4 4 4 4 3 2 1 1 0 0 0 0 0 1 1
3 3 2 3 3 3 4 5 5 4 4 3 3 3 3 3 4 6 6 5 5 4 7 9 8 7 7 6 6 5 4 4 2 1 0 1 0 0 0 1 0 1 1
3 3 3 3 3 2 3 5 5 4 4 3 3 3 5 5 6 6 5 5 4 3 4 5 7 8 7 7 7 4 4 3 2 1 0 1 1 1 1 0 0 0 1
Wind_Direction
153 147 144 138 127 119 106 98 96 89 93 105 134 150 161 163 163 169 179 182 182 181 179 178 177 177 176 175 176 175 173 176 179 178 177 176 177 177 177 177 177 180 181
174 171 176 179 177 169 154 132 123 111 102 113 135 153 166 173 176 179 190 195 195 194 195 193 190 189 188 186 187 189 190 191 192 191 192 191 192 193 197 198 196 197 197
189 184 191 207 212 190 167 143 119 114 118 122 132 159 172 184 188 195 200 203 206 208 208 207 205 203 202 201 202 203 203 204 202 202 202 202 203 206 209 210 210 210 210
198 191 200 219 211 176 161 154 143 126 120 135 158 195 190 198 206 208 206 208 211 216 219 219 218 217 216 215 214 213 213 213 212 212 213 213 215 217 219 220 220 219 219
202 196 204 213 197 172 169 178 160 156 166 178 197 212 210 215 222 219 216 217 217 221 225 228 228 227 227 227 225 223 221 220 220 220 222 222 223 224 226 226 226 226 226
201 194 199 202 185 170 176 175 163 154 163 176 199 261 257 238 230 228 228 225 225 227 229 231 233 236 237 236 235 232 230 227 225 226 227 228 229 228 230 231 232 232 231
198 191 195 189 182 185 194 183 163 160 172 139 100 354 331 270 241 236 230 228 231 231 230 230 233 235 241 242 241 240 237 234 230 229 229 230 230 229 231 233 234 234 234
195 199 195 193 191 186 190 187 172 159 180 164 153 129 334 330 311 253 234 230 236 230 230 231 229 232 234 238 243 243 242 240 237 233 230 229 231 231 232 233 235 234 235
201 203 199 196 195 191 201 201 187 180 189 195 184 162 173 233 299 326 268 240 233 230 239 235 229 232 233 234 240 245 245 245 243 240 237 233 232 231 233 235 237 237 237
202 205 206 202 201 201 205 210 200 193 180 196 201 209 198 174 184 292 321 297 249 241 245 242 234 232 230 228 231 237 239 240 242 245 244 241 236 233 234 236 238 235 229
206 209 207 202 205 208 211 211 202 198 193 194 194 186 192 197 199 205 257 290 312 270 248 238 231 227 225 220 221 227 228 232 235 239 242 243 240 234 233 234 236 231 226
218 217 209 205 211 213 215 213 208 204 203 201 201 193 183 186 195 197 226 247 264 281 275 254 246 230 224 217 215 216 220 223 224 229 234 235 234 237 238 233 231 226 223
219 220 207 203 209 217 215 204 203 211 205 202 205 207 207 214 193 189 203 231 250 266 271 308 286 237 194 167 176 189 185 179 177 201 216 223 222 223 225 221 220 214 214
225 215 201 205 212 215 213 194 198 212 203 203 207 203 209 218 206 202 196 192 230 252 241 243 5 116 111 120 119 127 123 123 135 151 169 191 198 203 205 212 220 206 196
215 196 191 193 200 201 198 184 186 204 186 195 202 200 206 214 206 212 205 196 199 231 248 227 211 142 127 110 106 105 107 104 113 118 123 128 122 125 129 133 143 153 160
188 167 168 172 176 177 168 158 158 165 156 170 167 160 185 222 211 211 210 212 211 213 233 215 210 190 136 117 104 106 103 94 92 103 107 106 103 100 101 109 114 119 121
152 155 156 151 143 130 130 137 142 137 145 148 152 157 183 170 182 211 209 202 199 192 214 235 132 104 111 110 93 90 90 91 87 88 92 97 98 99 99 98 99 98 98
134 136 129 123 119 117 124 136 144 142 152 161 167 147 197 173 147 178 190 197 193 185 181 191 146 105 100 116 102 93 86 85 83 81 88 92 95 98 99 100 99 97 94
114 113 115 115 113 116 117 116 121 119 131 139 133 133 136 119 106 68 96 127 149 143 145 156 149 104 85 104 94 86 82 75 80 80 83 82 85 90 92 96 99 100 97
111 108 104 108 112 113 112 110 111 113 108 92 85 89 87 96 100 95 92 97 113 113 115 126 122 113 105 103 109 111 94 69 71 71 72 74 77 81 84 90 95 99 100
100 101 99 89 89 98 103 117 116 110 104 93 78 69 73 80 81 89 95 99 111 113 115 120 121 120 121 133 142 134 128 106 66 56 72 65 71 74 75 77 83 91 99
84 91 96 94 83 76 90 106 120 114 107 101 92 76 70 65 75 79 79 85 97 116 132 131 135 145 157 161 131 140 141 141 127 29 91 66 67 66 70 80 80 91 102
88 80 82 84 80 79 89 95 104 111 105 100 97 95 87 71 82 89 79 75 71 73 97 134 142 157 168 181 160 152 152 145 144 157 128 95 50 62 53 70 82 89 91
98 85 80 89 89 79 83 96 102 102 98 91 88 100 103 83 91 104 94 79 67 57 66 86 114 124 135 156 163 158 145 117 91 66 108 144 198 262 272 251 161 165 132
94 84 84 95 95 80 84 105 109 104 98 87 79 86 102 97 95 105 103 94 77 59 64 76 78 78 84 102 119 116 118 123 102 66 37 150 182 247 279 292 271 202 224
106 100 81 69 85 88 90 107 118 116 108 99 82 74 83 96 97 106 113 114 103 77 74 71 65 63 71 83 96 113 142 141 122 114 153 160 144 158 167 259 286 161 190
Height
1569 1571 1572 1573 1574 1575 1576 1577 1577 1578 1579 1580 1580 1581 1582 1582 1583 1583 1584 1584 1585 1585 1586 1587 1588 1588 1589 1590 1591 1592 1593 1594 1595 1596 1596 1597 1598 1598 1599 1600 1600 1601 1601
1570 1571 1572 1574 1574 1575 1576 1577 1578 1579 1580 1581 1581 1582 1582 1583 1583 1584 1584 1585 1585 1586 1586 1587 1588 1589 1589 1590 1591 1592 1593 1593 1594 1595 1596 1597 1597 1598 1598 1599 1600 1600 1601
1571 1572 1573 1574 1575 1576 1577 1578 1579 1580 1580 1581 1581 1582 1582 1583 1583 1584 1584 1585 1585 1586 1587 1587 1588 1588 1589 1590 1591 1591 1592 1593 1594 1594 1595 1596 1596 1597 1598 1598 1599 1599 1600
1571 1572 1573 1574 1575 1576 1577 1578 1579 1580 1580 1581 1581 1582 1582 1583 1583 1584 1584 1585 1585 1586 1586 1587 1588 1588 1589 1589 1590 1590 1591 1592 1593 1593 1594 1595 1595 1596 1596 1597 1597 1598 1598
1570 1571 1573 1574 1575 1576 1576 1577 1578 1579 1580 1581 1581 1581 1582 1582 1583 1583 1584 1584 1585 1585 1586 1586 1587 1587 1588 1588 1589 1589 1590 1590 1591 1592 1592 1593 1594 1594 1595 1595 1596 1596 1597
1569 1571 1572 1573 1574 1575 1576 1577 1578 1579 1579 1580 1580 1581 1581 1581 1582 1582 1583 1583 1584 1585 1585 1585 1586 1586 1587 1587 1587 1588 1588 1589 1589 1590 1590 1591 1591 1592 1593 1593 1593 1594 1594
1568 1570 1571 1572 1573 1574 1575 1576 1577 1578 1578 1579 1579 1580 1580 1580 1580 1581 1581 1582 1582 1583 1584 1584 1585 1585 1585 1586 1586 1586 1586 1587 1587 1588 1588 1588 1589 1590 1590 1590 1591 1591 1591
1567 1568 1569 1571 1572 1573 1574 1575 1576 1576 1577 1578 1578 1579 1579 1580 1579 1579 1579 1579 1580 1581 1581 1582 1582 1583 1583 1584 1584 1584 1584 1584 1585 1585 1586 1586 1586 1587 1587 1587 1587 1588 1588
1565 1566 1568 1569 1570 1571 1572 1573 1574 1575 1575 1576 1577 1578 1577 1577 1577 1577 1577 1577 1578 1578 1579 1579 1580 1580 1581 1581 1581 1581 1582 1582 1582 1582 1583 1583 1583 1583 1584 1584 1584 1584 1584
1563 1565 1565 1567 1568 1569 1569 1571 1572 1572 1573 1574 1575 1575 1576 1576 1576 1575 1576 1575 1575 1576 1576 1577 1577 1577 1578 1578 1578 1578 1579 1579 1579 1579 1580 1580 1580 1580 1580 1580 1580 1580 1580
1561 1562 1563 1564 1565 1566 1567 1568 1569 1570 1571 1571 1572 1572 1573 1573 1574 1574 1573 1573 1573 1573 1574 1574 1574 1574 1575 1575 1575 1575 1575 1576 1576 1576 1576 1576 1576 1576 1576 1576 1576 1576 1576
1559 1560 1561 1562 1562 1563 1564 1565 1566 1567 1568 1568 1569 1570 1570 1571 1571 1571 1571 1570 1570 1571 1571 1571 1571 1571 1571 1571 1571 1571 1572 1572 1572 1572 1572 1572 1572 1572 1572 1572 1572 1572 1572
1556 1558 1559 1559 1560 1561 1561 1562 1563 1564 1565 1565 1566 1567 1567 1568 1568 1568 1568 1567 1567 1567 1567 1568 1568 1568 1568 1568 1568 1568 1568 1568 1568 1568 1568 1568 1568 1568 1568 1568 1568 1568 1568
1554 1555 1556 1557 1558 1558 1559 1559 1560 1561 1562 1562 1563 1564 1564 1564 1564 1565 1565 1565 1564 1564 1564 1564 1564 1564 1564 1564 1564 1565 1564 1564 1564 1564 1564 1564 1564 1564 1564 1564 1564 1564 1564
1551 1552 1553 1554 1555 1556 1556 1557 1557 1558 1559 1559 1560 1560 1560 1561 1561 1561 1561 1561 1562 1561 1560 1561 1561 1561 1561 1561 1561 1561 1561 1560 1561 1560 1560 1560 1560 1560 1560 1560 1560 1560 1561
1549 1550 1551 1552 1552 1553 1553 1554 1555 1555 1556 1556 1556 1557 1557 1557 1557 1557 1557 1557 1557 1558 1557 1557 1558 1558 1558 1557 1557 1558 1557 1557 1557 1557 1557 1557 1556 1556 1556 1556 1557 1557 1557
1547 1548 1549 1549 1550 1550 1551 1551 1552 1552 1552 1553 1553 1553 1553 1553 1553 1553 1553 1553 1553 1554 1553 1554 1554 1554 1555 1554 1555 1555 1554 1554 1555 1555 1555 1555 1554 1554 1554 1553 1554 1554 1554
1545 1546 1547 1547 1548 1548 1548 1549 1549 1550 1550 1550 1550 1550 1550 1550 1550 1550 1550 1550 1550 1550 1550 1550 1551 1551 1551 1552 1552 1552 1552 1552 1553 1553 1553 1553 1553 1552 1552 1551 1551 1551 1551
1544 1544 1545 1546 1546 1546 1546 1547 1547 1547 1547 1547 1547 1547 1547 1547 1547 1547 1547 1547 1547 1547 1547 1547 1548 1548 1549 1549 1549 1550 1550 1551 1551 1552 1552 1552 1551 1551 1551 1550 1550 1549 1549
1543 1543 1544 1544 1544 1544 1544 1544 1544 1544 1545 1545 1545 1545 1545 1545 1545 1545 1545 1545 1545 1545 1545 1545 1545 1546 1546 1547 1548 1548 1549 1550 1550 1551 1551 1550 1550 1550 1549 1549 1549 1548 1548
1542 1542 1542 1543 1543 1542 1542 1542 1542 1542 1543 1543 1543 1543 1543 1543 1543 1543 1543 1543 1543 1543 1544 1544 1544 1544 1545 1545 1546 1547 1547 1548 1549 1549 1549 1549 1549 1549 1548 1548 1548 1547 1547
1541 1541 1541 1541 1541 1541 1541 1540 1541 1540 1541 1541 1541 1542 1542 1542 1542 1542 1542 1542 1542 1543 1542 1543 1543 1543 1543 1544 1545 1545 1546 1547 1547 1549 1549 1549 1549 1548 1548 1547 1547 1547 1547
1540 1540 1540 1540 1540 1540 1539 1539 1539 1539 1539 1540 1540 1540 1541 1541 1541 1541 1541 1541 1541 1542 1542 1542 1542 1542 1543 1543 1544 1544 1545 1545 1546 1547 1547 1547 1547 1547 1547 1547 1547 1547 1546
1540 1540 1540 1540 1540 1539 1538 1538 1538 1538 1538 1538 1539 1539 1540 1540 1541 1541 1541 1541 1541 1541 1541 1541 1542 1542 1542 1542 1543 1544 1544 1544 1544 1545 1546 1546 1546 1546 1546 1546 1546 1547 1546
1539 1540 1540 1540 1539 1539 1538 1538 1538 1538 1537 1537 1538 1539 1539 1540 1540 1540 1540 1540 1540 1541 1541 1541 1541 1541 1541 1542 1542 1542 1542 1543 1543 1544 1544 1545 1545 1545 1545 1545 1545 1546 1546
1538 1539 1539 1539 1539 1538 1538 1537 1537 1537 1537 1537 1538 1538 1539 1539 1540 1540 1540 1539 1539 1540 1540 1540 1540 1540 1541 1541 1541 1541 1542 1542 1542 1543 1543 1543 1543 1544 1544 1544 1545 1545 1545